EW6571 Weather Reports


Display with metric or nautical units.
time (UTC)temp
F
wind
direction
speed
MPH
gust
MPH
rain 1hr
in
rain 24hr
in
rain mn
in
humidity
%
barometer
mb
20260504194556 64 265 5.0 13.0 0.00 0.00 0.00 28 1000.7
20260504193034 63 284 0.0 0.0 0.00 0.00 0.00 31 1000.9
20260504191542 63 284 0.0 3.0 0.00 0.00 0.00 32 1001.1
20260504190035 63 283 1.0 7.0 0.00 0.00 0.00 33 1001.2
20260504184537 64 232 3.0 9.0 0.00 0.00 0.00 28 1001.2
20260504183028 65 271 1.0 3.0 0.00 0.00 0.00 27 1001.3
20260504181526 64 234 1.0 10.0 0.00 0.00 0.00 29 1001.5
20260504180028 64 262 1.0 5.0 0.00 0.00 0.00 29 1001.8
20260504174522 64 74 2.0 8.0 0.00 0.00 0.00 34 1001.8
20260504173021 63 65 2.0 8.0 0.00 0.00 0.00 37 1002.1
20260504171514 59 72 3.0 5.0 0.00 0.00 0.00 43 1002.2
20260504081549 40 186 0.0 4.0 0.00 0.00 0.00 66 1004.3
20260504050024 46 176 0.0 5.0 0.00 0.00 0.00 55 1005.0
20260504044523 49 150 0.0 3.0 0.00 0.00 0.00 47 1005.0
20260504043022 52 150 2.0 7.0 0.00 0.00 0.00 42 1005.1
20260504041522 51 96 5.0 9.0 0.00 0.00 0.00 44 1005.0
20260504040021 49 113 2.0 10.0 0.00 0.00 0.00 48 1005.1
20260504034535 51 100 4.0 8.0 0.00 0.00 0.00 45 1005.0
20260504033026 54 165 0.0 0.0 0.00 0.00 0.00 40 1004.9
20260504031520 55 166 0.0 3.0 0.00 0.00 0.00 39 1004.9
20260504030029 55 177 1.0 7.0 0.00 0.00 0.00 39 1004.7
20260504024519 56 192 4.0 8.0 0.00 0.00 0.00 37 1004.6
20260504023019 57 181 2.0 10.0 0.00 0.00 0.00 35 1004.5
20260504021518 58 202 0.0 6.0 0.00 0.00 0.00 35 1004.3
20260504020017 60 220 1.0 6.0 0.00 0.00 0.00 32 1004.3
20260504014520 62 248 7.0 12.0 0.00 0.00 0.00 29 1004.3
20260504013016 63 242 8.0 16.0 0.00 0.00 0.00 28 1004.3
20260504011515 64 270 7.0 16.0 0.00 0.00 0.00 26 1004.5
20260504010014 65 279 4.0 13.0 0.00 0.00 0.00 29 1004.5
20260504004513 64 281 1.0 10.0 0.00 0.00 0.00 27 1004.7
20260504003011 65 292 10.0 14.0 0.00 0.00 0.00 25 1004.6
20260504001511 66 288 7.0 13.0 0.00 0.00 0.00 24 1004.7
20260504000010 65 271 13.0 18.0 0.00 0.00 0.00 26 1004.8
20260503234511 66 280 8.0 17.0 0.00 0.00 0.00 23 1004.9
20260503233007 67 295 11.0 17.0 0.00 0.00 0.00 23 1004.9
20260503231506 66 269 5.0 14.0 0.00 0.00 0.00 23 1005.0
20260503230004 66 279 11.0 15.0 0.00 0.00 0.00 24 1005.1
20260503224503 64 261 12.0 19.0 0.00 0.00 0.00 23 1005.4
20260503223001 66 254 10.0 16.0 0.00 0.00 0.00 24 1005.4
20260503221600 68 274 15.0 22.0 0.00 0.00 0.00 23 1005.5
20260503214558 67 288 12.0 18.0 0.00 0.00 0.00 23 1006.0
20260503213154 66 263 9.0 16.0 0.00 0.00 0.00 24 1006.2
20260503211617 65 262 10.0 17.0 0.00 0.00 0.00 25 1006.4
20260503210050 65 320 11.0 19.0 0.00 0.00 0.00 23 1006.4
20260503204602 67 304 9.0 19.0 0.00 0.00 0.00 20 1006.6
20260503203045 65 258 9.0 17.0 0.00 0.00 0.00 25 1006.7
20260503201543 65 278 7.0 13.0 0.00 0.00 0.00 25 1006.9
20260503200042 63 295 0.0 10.0 0.00 0.00 0.00 25 1007.1